| time (UTC) | temp C | wind direction | speed KPH | gust KPH | rain 1hr cm | rain 24hr cm | rain mn cm | humidity % | barometer mb |
| 20260503184516 | 18 | 240 | 4.8 | 9.7 | 0.00 | 0.00 | 0.00 | 44 | 1018.5 |
| 20260503184016 | 18 | 205 | 6.4 | 12.9 | 0.00 | 0.03 | 0.00 | 42 | 1018.6 |
| 20260503183517 | 18 | 174 | 6.4 | 17.7 | 0.00 | 0.03 | 0.00 | 43 | 1018.6 |
| 20260503183017 | 18 | 265 | 6.4 | 20.9 | 0.00 | 0.03 | 0.00 | 44 | 1018.8 |
| 20260503182516 | 18 | 253 | 6.4 | 20.9 | 0.00 | 0.03 | 0.00 | 43 | 1018.8 |
| 20260503182017 | 18 | 220 | 6.4 | 14.5 | 0.00 | 0.03 | 0.00 | 44 | 1018.9 |
| 20260503181517 | 18 | 231 | 6.4 | 14.5 | 0.00 | 0.03 | 0.00 | 45 | 1018.9 |
| 20260503181017 | 18 | 224 | 6.4 | 17.7 | 0.00 | 0.03 | 0.00 | 43 | 1018.9 |
| 20260503180517 | 18 | 201 | 4.8 | 12.9 | 0.00 | 0.03 | 0.00 | 44 | 1018.9 |
| 20260503180017 | 18 | 228 | 4.8 | 9.7 | 0.00 | 0.03 | 0.00 | 44 | 1019.0 |
| 20260503175537 | 18 | 245 | 6.4 | 12.9 | 0.00 | 0.03 | 0.00 | 43 | 1019.1 |
| 20260503175057 | 18 | 199 | 4.8 | 12.9 | 0.00 | 0.03 | 0.00 | 44 | 1019.1 |
| 20260503174517 | 18 | 203 | 6.4 | 14.5 | 0.00 | 0.03 | 0.00 | 45 | 1019.1 |
| 20260503174017 | 18 | 162 | 4.8 | 14.5 | 0.00 | 0.03 | 0.00 | 45 | 1019.1 |
| 20260503173517 | 18 | 176 | 4.8 | 14.5 | 0.00 | 0.03 | 0.00 | 45 | 1019.3 |
| 20260503173017 | 18 | 204 | 6.4 | 16.1 | 0.00 | 0.03 | 0.00 | 45 | 1019.3 |
| 20260503172518 | 17 | 194 | 4.8 | 12.9 | 0.00 | 0.03 | 0.00 | 45 | 1019.3 |
| 20260503172018 | 17 | 178 | 4.8 | 12.9 | 0.00 | 0.03 | 0.00 | 44 | 1019.5 |
| 20260503171518 | 17 | 235 | 8.0 | 17.7 | 0.00 | 0.03 | 0.00 | 44 | 1019.6 |
| 20260503171018 | 17 | 254 | 6.4 | 16.1 | 0.00 | 0.03 | 0.00 | 48 | 1019.6 |
| 20260503170518 | 17 | 258 | 8.0 | 17.7 | 0.00 | 0.03 | 0.00 | 46 | 1019.7 |
| 20260503150517 | 15 | 183 | 4.8 | 11.3 | 0.00 | 0.03 | 0.00 | 56 | 1020.9 |
| 20260503131015 | 8 | 192 | 3.2 | 8.0 | 0.00 | 0.03 | 0.00 | 93 | 1021.1 |
| 20260503130516 | 8 | 207 | 1.6 | 6.4 | 0.00 | 0.03 | 0.00 | 96 | 1021.0 |
| 20260503110517 | 1 | 245 | 0.0 | 1.6 | 0.00 | 0.03 | 0.00 | 99 | 1020.9 |
| 20260503081517 | 2 | 268 | 0.0 | 3.2 | 0.00 | 0.03 | 0.00 | 99 | 1020.3 |
| 20260503081017 | 3 | 244 | 0.0 | 1.6 | 0.00 | 0.03 | 0.00 | 99 | 1020.3 |
| 20260503080518 | 3 | 258 | 0.0 | 3.2 | 0.00 | 0.03 | 0.00 | 99 | 1020.3 |
| 20260503072518 | 3 | 247 | 0.0 | 1.6 | 0.00 | 0.03 | 0.00 | 99 | 1020.1 |
| 20260503072016 | 3 | 300 | 0.0 | 3.2 | 0.00 | 0.03 | 0.00 | 99 | 1020.1 |
| 20260503071518 | 3 | 262 | 0.0 | 1.6 | 0.00 | 0.03 | 0.00 | 99 | 1020.2 |
| 20260503071018 | 3 | 289 | 0.0 | 1.6 | 0.00 | 0.03 | 0.00 | 99 | 1020.2 |
| 20260503070518 | 3 | 278 | 0.0 | 1.6 | 0.00 | 0.03 | 0.00 | 99 | 1020.2 |
| 20260503055016 | 4 | 267 | 0.0 | 1.6 | 0.00 | 0.03 | 0.00 | 99 | 1020.4 |
| 20260503054517 | 4 | 242 | 0.0 | 1.6 | 0.00 | 0.03 | 0.00 | 99 | 1020.4 |
| 20260503054037 | 3 | 246 | 0.0 | 1.6 | 0.00 | 0.03 | 0.00 | 99 | 1020.4 |
| 20260503053516 | 3 | 272 | 0.0 | 1.6 | 0.00 | 0.03 | 0.00 | 99 | 1020.4 |
| 20260503053017 | 4 | 261 | 0.0 | 1.6 | 0.00 | 0.03 | 0.00 | 99 | 1020.5 |
| 20260503052517 | 4 | 269 | 0.0 | 3.2 | 0.00 | 0.03 | 0.00 | 99 | 1020.5 |
| 20260503052017 | 4 | 270 | 0.0 | 3.2 | 0.00 | 0.03 | 0.00 | 99 | 1020.5 |
| 20260503051537 | 4 | 264 | 0.0 | 1.6 | 0.00 | 0.03 | 0.00 | 99 | 1020.5 |
| 20260503051017 | 4 | 248 | 0.0 | 1.6 | 0.00 | 0.03 | 0.00 | 99 | 1020.5 |
| 20260503050517 | 5 | 223 | 0.0 | 3.2 | 0.00 | 0.03 | 0.00 | 99 | 1020.5 |
| 20260503050017 | 5 | 266 | 0.0 | 3.2 | 0.00 | 0.03 | 0.00 | 99 | 1020.4 |
| 20260503045538 | 5 | 257 | 1.6 | 4.8 | 0.00 | 0.03 | 0.00 | 99 | 1020.3 |
| 20260503045018 | 5 | 212 | 1.6 | 3.2 | 0.00 | 0.03 | 0.00 | 99 | 1020.3 |
| 20260503044518 | 5 | 232 | 0.0 | 1.6 | 0.00 | 0.03 | 0.00 | 99 | 1020.3 |
| 20260503044038 | 5 | 282 | 1.6 | 3.2 | 0.00 | 0.03 | 0.00 | 99 | 1020.4 |
| 20260503043518 | 5 | 274 | 1.6 | 3.2 | 0.00 | 0.03 | 0.00 | 100 | 1020.3 |
| 20260503043018 | 5 | 254 | 1.6 | 3.2 | 0.00 | 0.03 | 0.00 | 99 | 1020.3 |
| 20260503042518 | 5 | 278 | 1.6 | 3.2 | 0.00 | 0.03 | 0.00 | 98 | 1020.1 |
| 20260503042018 | 5 | 221 | 1.6 | 3.2 | 0.00 | 0.03 | 0.00 | 98 | 1020.1 |
| 20260503041518 | 5 | 202 | 0.0 | 3.2 | 0.00 | 0.03 | 0.00 | 98 | 1020.0 |
| 20260503041018 | 5 | 185 | 1.6 | 3.2 | 0.00 | 0.03 | 0.00 | 99 | 1020.1 |
| 20260503040656 | 5 | 226 | 1.6 | 4.8 | 0.00 | 0.03 | 0.00 | 99 | 1020.1 |
| 20260503040019 | 5 | 260 | 0.0 | 3.2 | 0.00 | 0.03 | 0.00 | 98 | 1020.1 |
| 20260503035516 | 5 | 296 | 1.6 | 3.2 | 0.00 | 0.03 | 0.00 | 97 | 1020.1 |
| 20260503035016 | 5 | 290 | 0.0 | 3.2 | 0.00 | 0.03 | 0.00 | 96 | 1020.1 |
| 20260503034518 | 6 | 268 | 1.6 | 3.2 | 0.00 | 0.03 | 0.00 | 96 | 1020.1 |
| 20260503034015 | 6 | 228 | 0.0 | 3.2 | 0.00 | 0.03 | 0.00 | 95 | 1020.1 |
| 20260503033516 | 6 | 148 | 0.0 | 3.2 | 0.00 | 0.03 | 0.00 | 95 | 1020.1 |
| 20260503033036 | 6 | 211 | 0.0 | 3.2 | 0.00 | 0.03 | 0.00 | 96 | 1020.2 |
| 20260503032516 | 6 | 196 | 0.0 | 3.2 | 0.00 | 0.03 | 0.00 | 96 | 1020.3 |
| 20260503032035 | 6 | 266 | 0.0 | 3.2 | 0.00 | 0.03 | 0.00 | 95 | 1020.4 |
| 20260503031516 | 6 | 247 | 0.0 | 3.2 | 0.00 | 0.03 | 0.00 | 94 | 1020.4 |
| 20260503031016 | 6 | 269 | 0.0 | 1.6 | 0.00 | 0.03 | 0.00 | 93 | 1020.3 |
| 20260503030516 | 6 | 228 | 0.0 | 1.6 | 0.00 | 0.03 | 0.00 | 92 | 1020.3 |
| 20260503030036 | 6 | 176 | 0.0 | 3.2 | 0.00 | 0.03 | 0.00 | 92 | 1020.3 |
| 20260503025536 | 6 | 192 | 0.0 | 3.2 | 0.00 | 0.03 | 0.00 | 91 | 1020.3 |
| 20260503025016 | 6 | 278 | 0.0 | 3.2 | 0.00 | 0.03 | 0.00 | 90 | 1020.2 |
| 20260503024516 | 6 | 243 | 1.6 | 3.2 | 0.00 | 0.03 | 0.00 | 90 | 1020.2 |
| 20260503024017 | 7 | 215 | 0.0 | 3.2 | 0.00 | 0.03 | 0.00 | 89 | 1020.1 |
| 20260503023517 | 7 | 251 | 0.0 | 3.2 | 0.00 | 0.03 | 0.00 | 88 | 1020.0 |
| 20260503023017 | 7 | 288 | 0.0 | 3.2 | 0.00 | 0.03 | 0.00 | 88 | 1019.9 |
| 20260503022517 | 7 | 283 | 1.6 | 4.8 | 0.00 | 0.03 | 0.00 | 87 | 1019.9 |
| 20260503022017 | 7 | 259 | 0.0 | 1.6 | 0.00 | 0.03 | 0.00 | 85 | 1019.8 |
| 20260503021517 | 7 | 195 | 0.0 | 3.2 | 0.00 | 0.03 | 0.00 | 84 | 1019.8 |
| 20260503021017 | 8 | 269 | 0.0 | 1.6 | 0.00 | 0.03 | 0.00 | 83 | 1019.8 |
| 20260503020557 | 8 | 263 | 0.0 | 3.2 | 0.00 | 0.03 | 0.00 | 82 | 1019.7 |
| 20260503020017 | 8 | 268 | 1.6 | 3.2 | 0.00 | 0.03 | 0.00 | 81 | 1019.7 |
| 20260503015558 | 8 | 296 | 0.0 | 3.2 | 0.00 | 0.03 | 0.00 | 80 | 1019.6 |
| 20260503015017 | 8 | 252 | 0.0 | 1.6 | 0.00 | 0.03 | 0.00 | 78 | 1019.6 |
| 20260503014518 | 9 | 263 | 0.0 | 3.2 | 0.00 | 0.03 | 0.00 | 77 | 1019.4 |
| 20260503014017 | 9 | 283 | 0.0 | 3.2 | 0.00 | 0.03 | 0.00 | 76 | 1019.3 |
| 20260503013517 | 10 | 227 | 0.0 | 1.6 | 0.00 | 0.03 | 0.00 | 74 | 1019.3 |
| 20260503013017 | 10 | 233 | 0.0 | 3.2 | 0.00 | 0.03 | 0.00 | 73 | 1019.2 |
| 20260503012518 | 10 | 147 | 0.0 | 3.2 | 0.00 | 0.03 | 0.00 | 72 | 1019.1 |
| 20260503012018 | 10 | 168 | 0.0 | 3.2 | 0.00 | 0.03 | 0.00 | 71 | 1019.1 |
| 20260503011518 | 11 | 119 | 0.0 | 3.2 | 0.00 | 0.03 | 0.00 | 69 | 1019.0 |
| 20260503011018 | 11 | 39 | 0.0 | 3.2 | 0.00 | 0.03 | 0.00 | 67 | 1019.0 |
| 20260503010518 | 11 | 13 | 1.6 | 3.2 | 0.00 | 0.03 | 0.00 | 67 | 1019.0 |
| 20260503010018 | 11 | 69 | 0.0 | 3.2 | 0.00 | 0.03 | 0.00 | 66 | 1019.0 |
| 20260503005515 | 11 | 26 | 1.6 | 9.7 | 0.00 | 0.03 | 0.00 | 65 | 1018.9 |
| 20260503005015 | 11 | 188 | 1.6 | 4.8 | 0.00 | 0.03 | 0.00 | 66 | 1018.9 |
| 20260503004516 | 12 | 4 | 3.2 | 8.0 | 0.00 | 0.03 | 0.00 | 65 | 1018.8 |
| 20260503004019 | 12 | 358 | 3.2 | 6.4 | 0.00 | 0.03 | 0.00 | 64 | 1018.8 |
| 20260503003515 | 12 | 17 | 1.6 | 6.4 | 0.00 | 0.03 | 0.00 | 65 | 1018.7 |
| 20260503003015 | 12 | 13 | 3.2 | 8.0 | 0.00 | 0.03 | 0.00 | 64 | 1018.6 |
| 20260503002516 | 12 | 4 | 3.2 | 6.4 | 0.00 | 0.03 | 0.00 | 63 | 1018.5 |
| 20260503002036 | 12 | 63 | 3.2 | 4.8 | 0.00 | 0.03 | 0.00 | 64 | 1018.4 |
| 20260503001516 | 13 | 40 | 3.2 | 8.0 | 0.00 | 0.03 | 0.00 | 63 | 1018.4 |
| 20260503001036 | 13 | 33 | 3.2 | 11.3 | 0.00 | 0.03 | 0.00 | 64 | 1018.4 |
| 20260503000517 | 13 | 31 | 4.8 | 11.3 | 0.00 | 0.03 | 0.00 | 64 | 1018.3 |
| 20260503000016 | 13 | 40 | 3.2 | 8.0 | 0.00 | 0.03 | 0.00 | 64 | 1018.2 |
| 20260502235537 | 13 | 344 | 3.2 | 8.0 | 0.00 | 0.03 | 0.03 | 65 | 1018.1 |
| 20260502235016 | 13 | 47 | 3.2 | 8.0 | 0.00 | 0.03 | 0.03 | 64 | 1018.1 |
| 20260502234537 | 13 | 46 | 3.2 | 9.7 | 0.00 | 0.03 | 0.03 | 63 | 1018.0 |
| 20260502234017 | 13 | 52 | 4.8 | 11.3 | 0.00 | 0.03 | 0.03 | 63 | 1018.0 |
| 20260502233516 | 13 | 14 | 6.4 | 16.1 | 0.00 | 0.03 | 0.03 | 63 | 1018.0 |
| 20260502233017 | 14 | 21 | 4.8 | 16.1 | 0.00 | 0.03 | 0.03 | 63 | 1018.0 |
| 20260502232517 | 14 | 42 | 3.2 | 9.7 | 0.00 | 0.03 | 0.03 | 62 | 1017.9 |
| 20260502232037 | 14 | 25 | 4.8 | 12.9 | 0.00 | 0.03 | 0.03 | 62 | 1018.0 |
| 20260502231517 | 14 | 67 | 6.4 | 14.5 | 0.00 | 0.03 | 0.03 | 61 | 1018.0 |
| 20260502231017 | 14 | 69 | 4.8 | 11.3 | 0.00 | 0.03 | 0.03 | 61 | 1018.0 |
| 20260502230517 | 14 | 3 | 4.8 | 11.3 | 0.00 | 0.03 | 0.03 | 60 | 1017.9 |
| 20260502230017 | 14 | 70 | 3.2 | 8.0 | 0.00 | 0.03 | 0.03 | 61 | 1017.8 |
| 20260502225518 | 14 | 47 | 6.4 | 12.9 | 0.00 | 0.03 | 0.03 | 61 | 1017.8 |
| 20260502225038 | 15 | 45 | 4.8 | 8.0 | 0.00 | 0.03 | 0.03 | 61 | 1017.8 |
| 20260502224517 | 15 | 31 | 4.8 | 11.3 | 0.00 | 0.03 | 0.03 | 60 | 1017.6 |
| 20260502224038 | 14 | 57 | 4.8 | 9.7 | 0.00 | 0.03 | 0.03 | 59 | 1017.5 |
| 20260502223518 | 14 | 10 | 6.4 | 16.1 | 0.00 | 0.03 | 0.03 | 58 | 1017.7 |
| 20260502223018 | 15 | 30 | 8.0 | 14.5 | 0.00 | 0.03 | 0.03 | 59 | 1017.6 |
| 20260502222518 | 15 | 46 | 6.4 | 14.5 | 0.00 | 0.03 | 0.03 | 58 | 1017.4 |
| 20260502222018 | 15 | 37 | 6.4 | 14.5 | 0.00 | 0.03 | 0.03 | 59 | 1017.4 |
| 20260502221518 | 15 | 24 | 4.8 | 11.3 | 0.00 | 0.03 | 0.03 | 59 | 1017.2 |
| 20260502221018 | 15 | 50 | 6.4 | 12.9 | 0.00 | 0.03 | 0.03 | 59 | 1017.2 |
| 20260502220518 | 15 | 47 | 6.4 | 14.5 | 0.00 | 0.03 | 0.03 | 59 | 1017.1 |
| 20260502220018 | 15 | 2 | 4.8 | 11.3 | 0.00 | 0.03 | 0.03 | 59 | 1016.9 |
| 20260502215515 | 15 | 352 | 6.4 | 14.5 | 0.00 | 0.03 | 0.03 | 59 | 1016.9 |
| 20260502215016 | 14 | 9 | 8.0 | 19.3 | 0.00 | 0.03 | 0.03 | 60 | 1017.1 |
| 20260502214516 | 15 | 18 | 8.0 | 16.1 | 0.00 | 0.03 | 0.03 | 61 | 1017.2 |
| 20260502214016 | 16 | 349 | 8.0 | 16.1 | 0.00 | 0.03 | 0.03 | 60 | 1016.8 |
| 20260502213516 | 16 | 8 | 6.4 | 17.7 | 0.00 | 0.03 | 0.03 | 60 | 1016.6 |
| 20260502213016 | 16 | 47 | 6.4 | 14.5 | 0.00 | 0.03 | 0.03 | 59 | 1016.6 |
| 20260502212516 | 16 | 21 | 4.8 | 16.1 | 0.00 | 0.03 | 0.03 | 58 | 1016.5 |
| 20260502212016 | 15 | 26 | 8.0 | 19.3 | 0.00 | 0.03 | 0.03 | 57 | 1016.4 |
| 20260502211516 | 15 | 11 | 6.4 | 16.1 | 0.00 | 0.03 | 0.03 | 59 | 1016.5 |
| 20260502211016 | 15 | 357 | 8.0 | 19.3 | 0.00 | 0.03 | 0.03 | 60 | 1016.7 |
| 20260502210516 | 16 | 1 | 9.7 | 16.1 | 0.00 | 0.03 | 0.03 | 58 | 1016.6 |
| 20260502210016 | 16 | 10 | 8.0 | 16.1 | 0.00 | 0.03 | 0.03 | 56 | 1016.2 |
| 20260502205516 | 16 | 356 | 8.0 | 14.5 | 0.00 | 0.03 | 0.03 | 56 | 1016.0 |
| 20260502205017 | 16 | 16 | 8.0 | 22.5 | 0.00 | 0.03 | 0.03 | 56 | 1015.9 |
| 20260502204517 | 16 | 9 | 9.7 | 17.7 | 0.00 | 0.03 | 0.03 | 56 | 1015.8 |
| 20260502204016 | 16 | 13 | 6.4 | 16.1 | 0.00 | 0.03 | 0.03 | 59 | 1015.8 |
| 20260502203517 | 16 | 53 | 6.4 | 12.9 | 0.00 | 0.03 | 0.03 | 59 | 1015.7 |
| 20260502203037 | 16 | 31 | 8.0 | 14.5 | 0.00 | 0.03 | 0.03 | 59 | 1016.0 |
| 20260502202517 | 17 | 357 | 9.7 | 19.3 | 0.00 | 0.03 | 0.03 | 55 | 1015.8 |
| 20260502202017 | 18 | 17 | 8.0 | 19.3 | 0.00 | 0.03 | 0.03 | 44 | 1015.7 |
| 20260502201517 | 19 | 274 | 8.0 | 22.5 | 0.00 | 0.03 | 0.03 | 37 | 1015.0 |
| 20260502201017 | 19 | 272 | 8.0 | 17.7 | 0.00 | 0.03 | 0.03 | 37 | 1014.9 |
| 20260502200517 | 19 | 293 | 8.0 | 17.7 | 0.00 | 0.03 | 0.03 | 39 | 1014.9 |
| 20260502200057 | 19 | 274 | 8.0 | 16.1 | 0.00 | 0.03 | 0.03 | 37 | 1015.0 |
| 20260502195518 | 18 | 318 | 8.0 | 24.1 | 0.00 | 0.03 | 0.03 | 37 | 1015.0 |
| 20260502195017 | 18 | 326 | 6.4 | 12.9 | 0.00 | 0.03 | 0.03 | 40 | 1015.2 |
| 20260502194517 | 18 | 281 | 8.0 | 22.5 | 0.00 | 0.03 | 0.03 | 40 | 1015.1 |
| 20260502194018 | 18 | 279 | 8.0 | 17.7 | 0.03 | 0.03 | 0.03 | 42 | 1015.1 |
| 20260502193518 | 18 | 257 | 9.7 | 22.5 | 0.03 | 0.03 | 0.03 | 43 | 1015.0 |
| 20260502193038 | 17 | 264 | 11.3 | 22.5 | 0.03 | 0.03 | 0.03 | 45 | 1015.0 |
| 20260502192518 | 17 | 256 | 6.4 | 16.1 | 0.03 | 0.03 | 0.03 | 48 | 1015.5 |
| 20260502192018 | 17 | 263 | 6.4 | 16.1 | 0.03 | 0.03 | 0.03 | 47 | 1015.6 |
| 20260502191538 | 18 | 272 | 8.0 | 19.3 | 0.03 | 0.03 | 0.03 | 46 | 1015.5 |
| 20260502191018 | 18 | 290 | 8.0 | 19.3 | 0.03 | 0.03 | 0.03 | 45 | 1015.0 |
| 20260502190619 | 17 | 259 | 6.4 | 14.5 | 0.03 | 0.03 | 0.03 | 48 | 1014.9 |
| 20260502190019 | 17 | 277 | 6.4 | 14.5 | 0.03 | 0.03 | 0.03 | 49 | 1015.0 |
| 20260502185516 | 17 | 352 | 4.8 | 12.9 | 0.03 | 0.03 | 0.03 | 51 | 1015.3 |
| 20260502185015 | 16 | 294 | 4.8 | 9.7 | 0.03 | 0.03 | 0.03 | 49 | 1015.9 |